Total_Precipitation_Accumulation
1.13 1.16 1.09 1.03 0.96 0.85 0.79 0.78 0.79 0.72 0.64 0.46 0.26 0.15 0.15 0.12 0.10 0.06 0.04 0.05 0.04 0.03 0.02 0.01 0.01 0.00 0.01 0.01 0.01 0.01 0.01 0.02 0.03 0.05 0.11 0.19 0.25 0.28
1.11 1.16 1.17 1.15 1.13 1.02 0.88 0.82 0.75 0.75 0.69 0.56 0.38 0.22 0.24 0.21 0.17 0.10 0.07 0.07 0.06 0.06 0.03 0.03 0.01 0.00 0.00 0.00 0.00 0.00 0.00 0.01 0.01 0.04 0.16 0.38 0.47 0.44
0.94 1.01 1.14 1.19 1.23 1.17 1.09 0.96 0.85 0.83 0.79 0.71 0.51 0.31 0.28 0.29 0.25 0.16 0.10 0.07 0.07 0.06 0.05 0.03 0.02 0.01 0.00 0.00 0.00 0.00 0.00 0.00 0.01 0.03 0.09 0.24 0.53 0.62
0.78 0.80 0.90 1.00 1.10 1.17 1.17 1.13 1.09 0.97 0.93 0.90 0.75 0.51 0.36 0.32 0.26 0.22 0.17 0.12 0.09 0.10 0.10 0.08 0.04 0.02 0.01 0.01 0.01 0.01 0.01 0.01 0.01 0.02 0.04 0.07 0.14 0.28
0.60 0.62 0.65 0.74 0.87 1.00 1.08 1.11 1.13 1.12 1.08 1.00 0.88 0.73 0.50 0.37 0.31 0.25 0.20 0.18 0.14 0.13 0.14 0.14 0.11 0.08 0.08 0.06 0.04 0.03 0.02 0.02 0.02 0.02 0.02 0.02 0.03 0.05
0.45 0.43 0.44 0.49 0.58 0.71 0.86 1.00 1.09 1.14 1.17 1.14 0.97 0.76 0.63 0.53 0.38 0.31 0.30 0.27 0.24 0.22 0.18 0.18 0.19 0.16 0.14 0.11 0.10 0.08 0.07 0.06 0.04 0.03 0.03 0.02 0.02 0.02
0.38 0.30 0.28 0.32 0.35 0.41 0.48 0.66 0.86 0.99 1.04 1.07 0.99 0.81 0.66 0.57 0.46 0.40 0.38 0.38 0.33 0.31 0.30 0.26 0.24 0.22 0.21 0.21 0.18 0.15 0.13 0.12 0.10 0.09 0.07 0.06 0.05 0.04
0.33 0.28 0.27 0.29 0.27 0.23 0.24 0.33 0.51 0.68 0.82 0.93 0.97 0.86 0.73 0.64 0.58 0.50 0.41 0.35 0.30 0.27 0.27 0.30 0.29 0.28 0.30 0.29 0.30 0.28 0.25 0.22 0.19 0.16 0.14 0.12 0.11 0.11
0.37 0.37 0.32 0.29 0.33 0.26 0.22 0.23 0.26 0.30 0.42 0.62 0.78 0.83 0.90 0.77 0.61 0.49 0.41 0.36 0.36 0.36 0.32 0.28 0.28 0.29 0.31 0.32 0.34 0.35 0.35 0.31 0.27 0.25 0.24 0.22 0.22 0.22
0.42 0.43 0.45 0.39 0.36 0.36 0.34 0.38 0.36 0.30 0.36 0.29 0.40 0.67 0.74 0.72 0.64 0.56 0.50 0.43 0.37 0.33 0.31 0.32 0.33 0.32 0.29 0.28 0.31 0.30 0.30 0.30 0.32 0.34 0.34 0.34 0.33 0.31
0.43 0.47 0.48 0.42 0.46 0.45 0.48 0.58 0.56 0.47 0.57 0.56 0.50 0.51 0.52 0.49 0.49 0.52 0.52 0.46 0.40 0.33 0.26 0.23 0.24 0.27 0.29 0.31 0.29 0.29 0.28 0.27 0.25 0.24 0.22 0.22 0.22 0.22
0.50 0.52 0.61 0.54 0.52 0.42 0.39 0.52 0.59 0.52 0.44 0.46 0.42 0.34 0.26 0.27 0.32 0.34 0.47 0.54 0.52 0.42 0.34 0.26 0.25 0.25 0.26 0.25 0.23 0.23 0.22 0.21 0.20 0.19 0.18 0.15 0.13 0.12
0.63 0.67 0.64 0.67 0.47 0.36 0.34 0.35 0.42 0.42 0.43 0.47 0.49 0.42 0.34 0.32 0.28 0.26 0.30 0.36 0.44 0.46 0.39 0.31 0.27 0.26 0.23 0.20 0.21 0.22 0.21 0.18 0.16 0.16 0.16 0.15 0.14 0.12
0.62 0.61 0.55 0.56 0.41 0.30 0.23 0.26 0.26 0.24 0.31 0.44 0.47 0.45 0.43 0.42 0.36 0.31 0.28 0.27 0.30 0.36 0.37 0.31 0.27 0.23 0.20 0.17 0.18 0.21 0.20 0.17 0.14 0.12 0.11 0.12 0.12 0.12
0.40 0.45 0.43 0.36 0.29 0.21 0.20 0.22 0.21 0.23 0.28 0.32 0.38 0.39 0.38 0.39 0.38 0.36 0.32 0.28 0.24 0.21 0.19 0.21 0.23 0.24 0.23 0.20 0.18 0.20 0.22 0.20 0.16 0.13 0.12 0.11 0.10 0.11
0.31 0.31 0.28 0.24 0.23 0.22 0.21 0.20 0.20 0.26 0.29 0.30 0.32 0.35 0.37 0.37 0.37 0.37 0.39 0.39 0.39 0.36 0.32 0.29 0.28 0.29 0.30 0.29 0.25 0.21 0.23 0.24 0.21 0.19 0.17 0.15 0.14 0.15
0.41 0.34 0.28 0.26 0.24 0.27 0.27 0.24 0.25 0.29 0.31 0.30 0.31 0.31 0.31 0.34 0.36 0.33 0.32 0.35 0.37 0.36 0.37 0.37 0.36 0.35 0.35 0.36 0.37 0.36 0.36 0.35 0.33 0.30 0.25 0.21 0.19 0.18
0.42 0.45 0.46 0.50 0.49 0.46 0.41 0.32 0.27 0.26 0.29 0.34 0.32 0.30 0.30 0.30 0.33 0.34 0.32 0.33 0.32 0.31 0.28 0.27 0.30 0.34 0.35 0.34 0.29 0.31 0.37 0.38 0.39 0.39 0.34 0.27 0.23 0.24
0.40 0.53 0.53 0.51 0.45 0.40 0.36 0.31 0.24 0.20 0.19 0.23 0.31 0.35 0.33 0.33 0.36 0.38 0.36 0.32 0.30 0.30 0.29 0.24 0.22 0.25 0.27 0.27 0.27 0.24 0.26 0.30 0.32 0.31 0.31 0.29 0.27 0.28
0.35 0.42 0.41 0.38 0.32 0.23 0.17 0.13 0.13 0.11 0.10 0.10 0.12 0.19 0.30 0.38 0.45 0.47 0.50 0.50 0.47 0.43 0.38 0.31 0.25 0.20 0.20 0.20 0.19 0.17 0.16 0.20 0.25 0.25 0.23 0.24 0.23 0.24
0.16 0.16 0.16 0.16 0.14 0.11 0.08 0.05 0.04 0.04 0.04 0.04 0.05 0.07 0.13 0.25 0.38 0.47 0.51 0.55 0.53 0.53 0.50 0.46 0.41 0.39 0.31 0.29 0.26 0.20 0.17 0.16 0.16 0.15 0.15 0.16 0.16 0.16
0.07 0.07 0.06 0.06 0.06 0.05 0.05 0.04 0.04 0.03 0.04 0.05 0.08 0.12 0.17 0.19 0.22 0.31 0.41 0.45 0.43 0.41 0.41 0.43 0.44 0.43 0.39 0.37 0.35 0.28 0.22 0.19 0.20 0.21 0.17 0.16 0.14 0.13
0.06 0.05 0.05 0.04 0.03 0.04 0.04 0.04 0.03 0.03 0.03 0.03 0.06 0.12 0.18 0.24 0.25 0.24 0.25 0.29 0.33 0.36 0.38 0.38 0.39 0.38 0.39 0.41 0.42 0.38 0.32 0.27 0.26 0.28 0.30 0.37 0.33 0.22